Location: Dumpton Point
(51.3500°N, 1.4433°E)
Time: 21:22:49
(UTC+00:00)

Tiros 1 despin weight - Pass Details

Date: 28 April 2021
Orbit: 593 x 642 km, 48.2° (Epoch: 06 May)

Event Time Altitude Azimuth Distance (km) Brightness Sun altitude
Exits shadow 02:35:29 24° 195° (SSW) 1,330 ? -15.4°
Maximum altitude 02:37:19 32° 154° (SSE) 1,092 ? -15.2°
Drops below altitude 10° 02:41:24 10° 92° (E) 2,001 ? -14.8°
Sets 02:43:53 0° 82° (E) 2,902 ? -14.5°
